This is the latest recevied weather packets stored in our database for station/object KG7FOQ-13. If no packets are shown the sender has not sent any weather packets the latest 10 day(s).
| Time | Temp. | Humidity | Pressure | Rain* | Wind** | Luminosity | Snow |
|---|---|---|---|---|---|---|---|
| 1778000578 | 13.89° C | 49% | 1009.8 hPa | 0 mm | - | - | - |
| 1777999977 | 13.89° C | 48% | 1009.7 hPa | 0 mm | - | - | - |
| 1777999676 | 13.89° C | 48% | 1009.7 hPa | 0 mm | - | - | - |
| 1777999376 | 13.33° C | 48% | 1009.7 hPa | 0 mm | - | - | - |
| 1777999074 | 13.33° C | 46% | 1009.7 hPa | 0 mm | - | - | - |
| 1777998774 | 12.78° C | 46% | 1009.8 hPa | 0 mm | - | - | - |
| 1777998173 | 12.78° C | 46% | 1009.9 hPa | 0 mm | - | - | - |
| 1777997872 | 12.22° C | 47% | 1009.9 hPa | 0 mm | - | - | - |
| 1777997572 | 12.78° C | 46% | 1010 hPa | 0 mm | - | - | - |
| 1777997271 | 12.22° C | 45% | 1010.2 hPa | 0 mm | - | - | - |
| 1777996971 | 12.22° C | 45% | 1010.2 hPa | 0 mm | - | - | - |
| 1777996670 | 11.67° C | 46% | 1010.2 hPa | 0 mm | - | - | - |
| 1777996370 | 11.67° C | 48% | 1010.3 hPa | 0 mm | - | - | - |
| 1777996069 | 11.67° C | 49% | 1010.2 hPa | 0 mm | - | - | - |
| 1777995769 | 12.22° C | 49% | 1010.2 hPa | 0 mm | - | - | - |
| 1777995468 | 11.67° C | 46% | 1010.2 hPa | 0 mm | - | - | - |
| 1777995167 | 11.67° C | 47% | 1010.2 hPa | 0 mm | - | - | - |
| 1777994866 | 11.67° C | 47% | 1010 hPa | 0 mm | - | - | - |
| 1777994566 | 11.67° C | 47% | 1010 hPa | 0 mm | - | - | - |
| 1777994265 | 11.67° C | 47% | 1010 hPa | 0 mm | - | - | - |
| 1777993965 | 11.67° C | 46% | 1009.9 hPa | 0 mm | - | - | - |
| 1777993664 | 11.67° C | 47% | 1010 hPa | 0 mm | - | - | - |
| 1777993062 | 11.67° C | 52% | 1010 hPa | 0 mm | - | - | - |
| 1777992761 | 11.67° C | 51% | 1009.9 hPa | 0 mm | - | - | - |
| 1777992460 | 11.11° C | 52% | 1009.9 hPa | 0 mm | - | - | - |
* Rain latest hour (hover to see other rain measurements)
** Current wind speed in m/s (hover to see current wind gust speed)